"Sample Date","Sample Time","Sample Value","Units","Flow Rate","Sample Interval","Number Channels","Micron Size 0","Counts/Channel 0","Micron Size 1","Counts/Channel 1","Micron Size 2","Counts/Channel 2","Micron Size 3","Counts/Channel 3","Micron Size 4","Counts/Channel 4","Micron Size 5","Counts/Channel 5","Micron Size 6","Counts/Channel 6","Micron Size 7","Counts/Channel 7","Micron Size 8","Counts/Channel 8","Micron Size 9","Counts/Channel 9","Micron Size 10","Counts/Channel 10","Micron Size 11","Counts/Channel 11","Micron Size 12","Counts/Channel 12","Micron Size 13","Counts/Channel 13","Micron Size 14","Counts/Channel 14","Micron Size 15","Counts/Channel 15","Micron Size 16","Counts/Channel 16","Micron Size 17","Counts/Channel 17","Micron Size 18","Counts/Channel 18","Micron Size 19","Counts/Channel 19","Micron Size 20","Counts/Channel 20","Micron Size 21","Counts/Channel 21","Micron Size 22","Counts/Channel 22","Micron Size 23","Counts/Channel 23","Micron Size 24","Counts/Channel 24","Micron Size 25","Counts/Channel 25","Micron Size 26","Counts/Channel 26","Micron Size 27","Counts/Channel 27","Micron Size 28","Counts/Channel 28","Micron Size 29","Counts/Channel 29","Micron Size 30","Counts/Channel 30","Micron Size 31","Counts/Channel 31"
"03/08/08","03:00:02",1730.000,"cc",28438.949,6.00,6,0.100,1448.000,0.200,211.000,0.300,49.000,0.500,20.000,1.000,2.000,5.000,0
"03/08/08","03:00:08",1617.000,"cc",28287.709,6.00,6,0.100,1399.000,0.200,185.000,0.300,23.000,0.500,10.000,1.000,0,5.000,0
"03/08/08","03:00:14",1395.000,"cc",28231.865,6.00,6,0.100,1216.000,0.200,153.000,0.300,23.000,0.500,3.000,1.000,0,5.000,0
"03/08/08","03:00:20",1596.000,"cc",28324.711,6.00,6,0.100,1346.000,0.200,207.000,0.300,36.000,0.500,7.000,1.000,0,5.000,0
"03/08/08","03:00:26",1510.000,"cc",28376.234,6.00,6,0.100,1272.000,0.200,201.000,0.300,29.000,0.500,7.000,1.000,1.000,5.000,0
"03/08/08","03:00:32",1406.000,"cc",28262.096,6.00,6,0.100,1190.000,0.200,193.000,0.300,17.000,0.500,6.000,1.000,0,5.000,0
"03/08/08","03:00:38",1495.000,"cc",28344.174,6.00,6,0.100,1278.000,0.200,182.000,0.300,25.000,0.500,10.000,1.000,0,5.000,0
"03/08/08","03:00:44",1552.000,"cc",28295.887,6.00,6,0.100,1317.000,0.200,201.000,0.300,26.000,0.500,8.000,1.000,0,5.000,0
"03/08/08","03:00:50",1527.000,"cc",28353.621,6.00,6,0.100,1288.000,0.200,201.000,0.300,35.000,0.500,3.000,1.000,0,5.000,0
"03/08/08","03:00:56",1481.000,"cc",28306.723,6.00,6,0.100,1264.000,0.200,181.000,0.300,30.000,0.500,6.000,1.000,0,5.000,0
"03/08/08","03:01:02",1457.000,"cc",28337.488,6.00,6,0.100,1263.000,0.200,164.000,0.300,25.000,0.500,5.000,1.000,0,5.000,0
"03/08/08","03:01:08",1236.000,"cc",28296.182,6.00,6,0.100,1069.000,0.200,150.000,0.300,12.000,0.500,5.000,1.000,0,5.000,0
"03/08/08","03:01:14",1576.000,"cc",28320.750,6.00,6,0.100,1340.000,0.200,190.000,0.300,33.000,0.500,13.000,1.000,0,5.000,0
"03/08/08","03:01:20",1402.000,"cc",28342.125,6.00,6,0.100,1215.000,0.200,154.000,0.300,28.000,0.500,3.000,1.000,2.000,5.000,0
"03/08/08","03:01:26",1652.000,"cc",28383.256,6.00,6,0.100,1352.000,0.200,247.000,0.300,39.000,0.500,12.000,1.000,2.000,5.000,0
"03/08/08","03:01:32",1629.000,"cc",28310.037,6.00,6,0.100,1387.000,0.200,188.000,0.300,38.000,0.500,16.000,1.000,0,5.000,0
"03/08/08","03:01:38",1647.000,"cc",28272.320,6.00,6,0.100,1356.000,0.200,229.000,0.300,52.000,0.500,10.000,1.000,0,5.000,0
"03/08/08","03:01:44",1697.000,"cc",28316.561,6.00,6,0.100,1402.000,0.200,214.000,0.300,62.000,0.500,19.000,1.000,0,5.000,0
"03/08/08","03:01:50",1717.000,"cc",28302.371,6.00,6,0.100,1408.000,0.200,224.000,0.300,56.000,0.500,27.000,1.000,2.000,5.000,0
"03/08/08","03:01:56",1820.000,"cc",28353.668,6.00,6,0.100,1479.000,0.200,253.000,0.300,64.000,0.500,23.000,1.000,1.000,5.000,0
"03/08/08","03:02:02",1770.000,"cc",28367.992,6.00,6,0.100,1424.000,0.200,245.000,0.300,63.000,0.500,36.000,1.000,2.000,5.000,0
"03/08/08","03:02:08",1695.000,"cc",28319.166,6.00,6,0.100,1391.000,0.200,225.000,0.300,51.000,0.500,26.000,1.000,2.000,5.000,0
"03/08/08","03:02:14",1435.000,"cc",28318.223,6.00,6,0.100,1189.000,0.200,179.000,0.300,45.000,0.500,19.000,1.000,3.000,5.000,0
"03/08/08","03:02:20",1448.000,"cc",28314.658,6.00,6,0.100,1236.000,0.200,170.000,0.300,30.000,0.500,10.000,1.000,2.000,5.000,0
"03/08/08","03:02:26",1330.000,"cc",28338.572,6.00,6,0.100,1121.000,0.200,169.000,0.300,34.000,0.500,6.000,1.000,0,5.000,0
"03/08/08","03:02:32",1459.000,"cc",28331.973,6.00,6,0.100,1253.000,0.200,174.000,0.300,27.000,0.500,4.000,1.000,1.000,5.000,0
"03/08/08","03:02:38",1332.000,"cc",28298.047,6.00,6,0.100,1130.000,0.200,168.000,0.300,27.000,0.500,5.000,1.000,2.000,5.000,0
"03/08/08","03:02:44",1391.000,"cc",28334.217,6.00,6,0.100,1199.000,0.200,151.000,0.300,29.000,0.500,11.000,1.000,1.000,5.000,0
"03/08/08","03:02:50",1307.000,"cc",28319.049,6.00,6,0.100,1096.000,0.200,179.000,0.300,22.000,0.500,10.000,1.000,0,5.000,0
"03/08/08","03:02:56",1325.000,"cc",28292.852,6.00,6,0.100,1124.000,0.200,175.000,0.300,22.000,0.500,4.000,1.000,0,5.000,0
"03/08/08","03:03:02",1345.000,"cc",28288.104,6.00,6,0.100,1154.000,0.200,165.000,0.300,17.000,0.500,9.000,1.000,0,5.000,0
"03/08/08","03:03:08",1260.000,"cc",28365.711,6.00,6,0.100,1060.000,0.200,158.000,0.300,31.000,0.500,9.000,1.000,2.000,5.000,0
"03/08/08","03:03:14",1248.000,"cc",28313.512,6.00,6,0.100,1068.000,0.200,134.000,0.300,34.000,0.500,11.000,1.000,1.000,5.000,0
"03/08/08","03:03:20",1298.000,"cc",28331.221,6.00,6,0.100,1097.000,0.200,178.000,0.300,23.000,0.500,0,1.000,0,5.000,0
"03/08/08","03:03:26",1183.000,"cc",28255.801,6.00,6,0.100,999.000,0.200,159.000,0.300,19.000,0.500,5.000,1.000,1.000,5.000,0
"03/08/08","03:03:32",1379.000,"cc",28317.787,6.00,6,0.100,1154.000,0.200,180.000,0.300,32.000,0.500,13.000,1.000,0,5.000,0
"03/08/08","03:03:38",1201.000,"cc",28319.303,6.00,6,0.100,1013.000,0.200,145.000,0.300,35.000,0.500,8.000,1.000,0,5.000,0
"03/08/08","03:03:44",1281.000,"cc",28358.299,6.00,6,0.100,1077.000,0.200,172.000,0.300,27.000,0.500,4.000,1.000,1.000,5.000,0
"03/08/08","03:03:50",1533.000,"cc",28318.758,6.00,6,0.100,1256.000,0.200,196.000,0.300,58.000,0.500,20.000,1.000,3.000,5.000,0
"03/08/08","03:03:56",1425.000,"cc",28273.719,6.00,6,0.100,1183.000,0.200,207.000,0.300,30.000,0.500,5.000,1.000,0,5.000,0
"03/08/08","03:04:02",1201.000,"cc",28301.844,6.00,6,0.100,1011.000,0.200,161.000,0.300,25.000,0.500,3.000,1.000,1.000,5.000,0
"03/08/08","03:04:08",1032.000,"cc",28348.211,6.00,6,0.100,904.000,0.200,103.000,0.300,21.000,0.500,4.000,1.000,0,5.000,0
"03/08/08","03:04:14",1005.000,"cc",28341.123,6.00,6,0.100,854.000,0.200,126.000,0.300,22.000,0.500,3.000,1.000,0,5.000,0
"03/08/08","03:04:20",983.000,"cc",28355.904,6.00,6,0.100,835.000,0.200,134.000,0.300,11.000,0.500,3.000,1.000,0,5.000,0
"03/08/08","03:04:26",724.000,"cc",28337.363,6.00,6,0.100,632.000,0.200,81.000,0.300,11.000,0.500,0,1.000,0,5.000,0
"03/08/08","03:04:32",870.000,"cc",28288.906,6.00,6,0.100,766.000,0.200,93.000,0.300,9.000,0.500,2.000,1.000,0,5.000,0
"03/08/08","03:04:38",1027.000,"cc",28371.527,6.00,6,0.100,884.000,0.200,129.000,0.300,13.000,0.500,1.000,1.000,0,5.000,0
"03/08/08","03:04:44",901.000,"cc",28396.012,6.00,6,0.100,786.000,0.200,98.000,0.300,16.000,0.500,1.000,1.000,0,5.000,0
"03/08/08","03:04:50",978.000,"cc",28272.205,6.00,6,0.100,841.000,0.200,117.000,0.300,17.000,0.500,3.000,1.000,0,5.000,0
"03/08/08","03:04:56",1051.000,"cc",28280.283,6.00,6,0.100,879.000,0.200,150.000,0.300,19.000,0.500,3.000,1.000,0,5.000,0
"03/08/08","03:05:02",1121.000,"cc",28307.725,6.00,6,0.100,963.000,0.200,143.000,0.300,12.000,0.500,2.000,1.000,1.000,5.000,0
"03/08/08","03:05:08",1124.000,"cc",28333.668,6.00,6,0.100,970.000,0.200,136.000,0.300,15.000,0.500,3.000,1.000,0,5.000,0
"03/08/08","03:05:14",1221.000,"cc",28358.563,6.00,6,0.100,1029.000,0.200,159.000,0.300,25.000,0.500,8.000,1.000,0,5.000,0
"03/08/08","03:05:20",1382.000,"cc",28268.289,6.00,6,0.100,1155.000,0.200,184.000,0.300,34.000,0.500,9.000,1.000,0,5.000,0
"03/08/08","03:05:26",1323.000,"cc",28275.117,6.00,6,0.100,1067.000,0.200,204.000,0.300,34.000,0.500,15.000,1.000,3.000,5.000,0
"03/08/08","03:05:32",1325.000,"cc",28356.805,6.00,6,0.100,1098.000,0.200,162.000,0.300,50.000,0.500,14.000,1.000,1.000,5.000,0
"03/08/08","03:05:38",1425.000,"cc",28311.197,6.00,6,0.100,1158.000,0.200,200.000,0.300,49.000,0.500,16.000,1.000,2.000,5.000,0
"03/08/08","03:05:44",1356.000,"cc",28314.268,6.00,6,0.100,1107.000,0.200,187.000,0.300,45.000,0.500,16.000,1.000,1.000,5.000,0
"03/08/08","03:05:50",1318.000,"cc",28314.004,6.00,6,0.100,1069.000,0.200,184.000,0.300,38.000,0.500,27.000,1.000,0,5.000,0
"03/08/08","03:05:56",1228.000,"cc",28325.135,6.00,6,0.100,1019.000,0.200,171.000,0.300,29.000,0.500,9.000,1.000,0,5.000,0
"03/08/08","03:06:02",1275.000,"cc",28316.219,6.00,6,0.100,1080.000,0.200,164.000,0.300,23.000,0.500,8.000,1.000,0,5.000,0
"03/08/08","03:06:08",1223.000,"cc",28372.059,6.00,6,0.100,1039.000,0.200,157.000,0.300,20.000,0.500,7.000,1.000,0,5.000,0
"03/08/08","03:06:14",1258.000,"cc",28353.084,6.00,6,0.100,1061.000,0.200,164.000,0.300,25.000,0.500,6.000,1.000,2.000,5.000,0
"03/08/08","03:06:20",1275.000,"cc",28277.381,6.00,6,0.100,1049.000,0.200,178.000,0.300,33.000,0.500,14.000,1.000,1.000,5.000,0
"03/08/08","03:06:26",1361.000,"cc",28283.676,6.00,6,0.100,1116.000,0.200,198.000,0.300,33.000,0.500,12.000,1.000,2.000,5.000,0
"03/08/08","03:06:32",1475.000,"cc",28313.623,6.00,6,0.100,1166.000,0.200,248.000,0.300,41.000,0.500,19.000,1.000,1.000,5.000,0
"03/08/08","03:06:38",1295.000,"cc",28310.332,6.00,6,0.100,1089.000,0.200,172.000,0.300,22.000,0.500,10.000,1.000,2.000,5.000,0
"03/08/08","03:06:44",1277.000,"cc",28299.815,6.00,6,0.100,1064.000,0.200,175.000,0.300,26.000,0.500,12.000,1.000,0,5.000,0
"03/08/08","03:06:50",1366.000,"cc",28344.565,6.00,6,0.100,1111.000,0.200,194.000,0.300,41.000,0.500,18.000,1.000,2.000,5.000,0
"03/08/08","03:06:56",1356.000,"cc",28293.988,6.00,6,0.100,1093.000,0.200,198.000,0.300,44.000,0.500,18.000,1.000,3.000,5.000,0
"03/08/08","03:07:02",1227.000,"cc",28313.934,6.00,6,0.100,1012.000,0.200,179.000,0.300,25.000,0.500,11.000,1.000,0,5.000,0
"03/08/08","03:07:08",1200.000,"cc",28319.693,6.00,6,0.100,981.000,0.200,171.000,0.300,28.000,0.500,18.000,1.000,2.000,5.000,0
"03/08/08","03:07:14",1369.000,"cc",28332.820,6.00,6,0.100,1103.000,0.200,194.000,0.300,47.000,0.500,23.000,1.000,2.000,5.000,0
"03/08/08","03:07:20",1411.000,"cc",28323.506,6.00,6,0.100,1153.000,0.200,205.000,0.300,36.000,0.500,16.000,1.000,1.000,5.000,0
"03/08/08","03:07:26",1407.000,"cc",28337.285,6.00,6,0.100,1162.000,0.200,177.000,0.300,49.000,0.500,18.000,1.000,1.000,5.000,0
"03/08/08","03:07:32",1263.000,"cc",28343.746,6.00,6,0.100,1025.000,0.200,184.000,0.300,32.000,0.500,20.000,1.000,2.000,5.000,0
"03/08/08","03:07:38",1185.000,"cc",28363.877,6.00,6,0.100,989.000,0.200,157.000,0.300,30.000,0.500,8.000,1.000,1.000,5.000,0
"03/08/08","03:07:44",1270.000,"cc",28321.703,6.00,6,0.100,1012.000,0.200,196.000,0.300,38.000,0.500,24.000,1.000,0,5.000,0
"03/08/08","03:07:50",1216.000,"cc",28241.297,6.00,6,0.100,994.000,0.200,172.000,0.300,41.000,0.500,9.000,1.000,0,5.000,0
"03/08/08","03:07:56",1214.000,"cc",28310.848,6.00,6,0.100,1004.000,0.200,176.000,0.300,24.000,0.500,10.000,1.000,0,5.000,0
"03/08/08","03:08:02",1331.000,"cc",28358.799,6.00,6,0.100,1111.000,0.200,170.000,0.300,41.000,0.500,9.000,1.000,0,5.000,0
"03/08/08","03:08:08",987.000,"cc",28361.010,6.00,6,0.100,804.000,0.200,144.000,0.300,23.000,0.500,15.000,1.000,1.000,5.000,0
"03/08/08","03:08:14",1152.000,"cc",28310.652,6.00,6,0.100,914.000,0.200,189.000,0.300,33.000,0.500,16.000,1.000,0,5.000,0
"03/08/08","03:08:20",1274.000,"cc",28301.029,6.00,6,0.100,1045.000,0.200,187.000,0.300,27.000,0.500,13.000,1.000,2.000,5.000,0
"03/08/08","03:08:26",1346.000,"cc",28253.287,6.00,6,0.100,1090.000,0.200,203.000,0.300,37.000,0.500,16.000,1.000,0,5.000,0
"03/08/08","03:08:32",1047.000,"cc",28330.137,6.00,6,0.100,876.000,0.200,137.000,0.300,28.000,0.500,5.000,1.000,1.000,5.000,0
"03/08/08","03:08:38",1052.000,"cc",28323.881,6.00,6,0.100,883.000,0.200,143.000,0.300,21.000,0.500,5.000,1.000,0,5.000,0
"03/08/08","03:08:44",1266.000,"cc",28340.926,6.00,6,0.100,1038.000,0.200,188.000,0.300,30.000,0.500,9.000,1.000,1.000,5.000,0
"03/08/08","03:08:50",1160.000,"cc",28287.164,6.00,6,0.100,965.000,0.200,165.000,0.300,25.000,0.500,5.000,1.000,0,5.000,0
"03/08/08","03:08:56",1024.000,"cc",28269.639,6.00,6,0.100,856.000,0.200,139.000,0.300,21.000,0.500,7.000,1.000,1.000,5.000,0
"03/08/08","03:09:02",973.000,"cc",28316.947,6.00,6,0.100,824.000,0.200,121.000,0.300,18.000,0.500,10.000,1.000,0,5.000,0
"03/08/08","03:09:08",1034.000,"cc",28341.307,6.00,6,0.100,870.000,0.200,140.000,0.300,22.000,0.500,2.000,1.000,0,5.000,0
"03/08/08","03:09:14",810.000,"cc",28344.029,6.00,6,0.100,695.000,0.200,95.000,0.300,15.000,0.500,5.000,1.000,0,5.000,0
"03/08/08","03:09:20",975.000,"cc",28340.340,6.00,6,0.100,810.000,0.200,138.000,0.300,23.000,0.500,4.000,1.000,0,5.000,0
"03/08/08","03:09:26",1131.000,"cc",28259.137,6.00,6,0.100,932.000,0.200,152.000,0.300,33.000,0.500,11.000,1.000,3.000,5.000,0
"03/08/08","03:09:32",1023.000,"cc",28338.467,6.00,6,0.100,826.000,0.200,169.000,0.300,22.000,0.500,6.000,1.000,0,5.000,0
"03/08/08","03:09:38",1070.000,"cc",28298.373,6.00,6,0.100,885.000,0.200,151.000,0.300,29.000,0.500,5.000,1.000,0,5.000,0
"03/08/08","03:09:44",978.000,"cc",28337.973,6.00,6,0.100,813.000,0.200,134.000,0.300,23.000,0.500,7.000,1.000,1.000,5.000,0
"03/08/08","03:09:50",868.000,"cc",28304.561,6.00,6,0.100,731.000,0.200,117.000,0.300,14.000,0.500,6.000,1.000,0,5.000,0
"03/08/08","03:09:56",998.000,"cc",28294.916,6.00,6,0.100,840.000,0.200,131.000,0.300,23.000,0.500,4.000,1.000,0,5.000,0
"03/08/08","03:10:02",756.000,"cc",28339.111,6.00,6,0.100,626.000,0.200,116.000,0.300,11.000,0.500,3.000,1.000,0,5.000,0
"03/08/08","03:10:08",903.000,"cc",28375.381,6.00,6,0.100,768.000,0.200,112.000,0.300,17.000,0.500,6.000,1.000,0,5.000,0
"03/08/08","03:10:14",944.000,"cc",28355.408,6.00,6,0.100,765.000,0.200,155.000,0.300,17.000,0.500,6.000,1.000,1.000,5.000,0
"03/08/08","03:10:20",901.000,"cc",28322.752,6.00,6,0.100,743.000,0.200,141.000,0.300,14.000,0.500,3.000,1.000,0,5.000,0
"03/08/08","03:10:26",848.000,"cc",28277.406,6.00,6,0.100,715.000,0.200,106.000,0.300,23.000,0.500,4.000,1.000,0,5.000,0
"03/08/08","03:10:32",1057.000,"cc",28302.594,6.00,6,0.100,849.000,0.200,163.000,0.300,34.000,0.500,11.000,1.000,0,5.000,0
"03/08/08","03:10:38",1118.000,"cc",28316.025,6.00,6,0.100,948.000,0.200,132.000,0.300,31.000,0.500,7.000,1.000,0,5.000,0
"03/08/08","03:10:44",1177.000,"cc",28257.481,6.00,6,0.100,946.000,0.200,181.000,0.300,38.000,0.500,11.000,1.000,1.000,5.000,0
"03/08/08","03:10:50",1281.000,"cc",28307.451,6.00,6,0.100,1067.000,0.200,181.000,0.300,24.000,0.500,9.000,1.000,0,5.000,0
"03/08/08","03:10:56",1316.000,"cc",28345.879,6.00,6,0.100,1087.000,0.200,178.000,0.300,39.000,0.500,12.000,1.000,0,5.000,0
"03/08/08","03:11:02",1251.000,"cc",28316.285,6.00,6,0.100,1016.000,0.200,176.000,0.300,40.000,0.500,17.000,1.000,2.000,5.000,0
"03/08/08","03:11:08",1403.000,"cc",28320.555,6.00,6,0.100,1153.000,0.200,194.000,0.300,45.000,0.500,11.000,1.000,0,5.000,0
"03/08/08","03:11:14",1423.000,"cc",28332.656,6.00,6,0.100,1167.000,0.200,218.000,0.300,29.000,0.500,9.000,1.000,0,5.000,0
"03/08/08","03:11:20",1232.000,"cc",28331.082,6.00,6,0.100,1007.000,0.200,178.000,0.300,33.000,0.500,13.000,1.000,1.000,5.000,0
"03/08/08","03:11:26",1168.000,"cc",28340.047,6.00,6,0.100,963.000,0.200,171.000,0.300,31.000,0.500,3.000,1.000,0,5.000,0
"03/08/08","03:11:32",1101.000,"cc",28263.387,6.00,6,0.100,906.000,0.200,161.000,0.300,26.000,0.500,8.000,1.000,0,5.000,0
"03/08/08","03:11:38",1241.000,"cc",28300.273,6.00,6,0.100,997.000,0.200,195.000,0.300,34.000,0.500,14.000,1.000,1.000,5.000,0
"03/08/08","03:11:44",1469.000,"cc",28347.447,6.00,6,0.100,1197.000,0.200,210.000,0.300,42.000,0.500,18.000,1.000,2.000,5.000,0
"03/08/08","03:11:50",1354.000,"cc",28323.041,6.00,6,0.100,1100.000,0.200,197.000,0.300,41.000,0.500,16.000,1.000,0,5.000,0
"03/08/08","03:11:56",909.000,"cc",28297.940,6.00,6,0.100,729.000,0.200,138.000,0.300,29.000,0.500,12.000,1.000,1.000,5.000,0
"03/08/08","03:12:02",1229.000,"cc",28219.008,6.00,6,0.100,976.000,0.200,188.000,0.300,50.000,0.500,14.000,1.000,1.000,5.000,0
"03/08/08","03:12:08",1342.000,"cc",28342.699,6.00,6,0.100,1060.000,0.200,200.000,0.300,51.000,0.500,26.000,1.000,5.000,5.000,0
"03/08/08","03:12:14",1341.000,"cc",28383.910,6.00,6,0.100,1047.000,0.200,213.000,0.300,56.000,0.500,21.000,1.000,4.000,5.000,0
"03/08/08","03:12:20",1342.000,"cc",28347.871,6.00,6,0.100,1035.000,0.200,210.000,0.300,63.000,0.500,30.000,1.000,4.000,5.000,0
"03/08/08","03:12:26",1356.000,"cc",28359.867,6.00,6,0.100,1053.000,0.200,212.000,0.300,56.000,0.500,34.000,1.000,1.000,5.000,0
"03/08/08","03:12:32",1280.000,"cc",28330.045,6.00,6,0.100,989.000,0.200,200.000,0.300,64.000,0.500,24.000,1.000,3.000,5.000,0
"03/08/08","03:12:38",1166.000,"cc",28297.621,6.00,6,0.100,914.000,0.200,176.000,0.300,42.000,0.500,31.000,1.000,3.000,5.000,0
"03/08/08","03:12:44",1109.000,"cc",28259.594,6.00,6,0.100,874.000,0.200,169.000,0.300,41.000,0.500,24.000,1.000,1.000,5.000,0
"03/08/08","03:12:50",1004.000,"cc",28308.799,6.00,6,0.100,818.000,0.200,143.000,0.300,30.000,0.500,13.000,1.000,0,5.000,0
"03/08/08","03:12:56",978.000,"cc",28275.883,6.00,6,0.100,798.000,0.200,133.000,0.300,30.000,0.500,16.000,1.000,1.000,5.000,0
"03/08/08","03:13:02",983.000,"cc",28341.699,6.00,6,0.100,794.000,0.200,141.000,0.300,39.000,0.500,7.000,1.000,2.000,5.000,0
"03/08/08","03:13:08",811.000,"cc",28327.982,6.00,6,0.100,670.000,0.200,108.000,0.300,23.000,0.500,10.000,1.000,0,5.000,0
"03/08/08","03:13:14",807.000,"cc",28355.123,6.00,6,0.100,666.000,0.200,110.000,0.300,21.000,0.500,10.000,1.000,0,5.000,0
"03/08/08","03:13:20",785.000,"cc",28298.565,6.00,6,0.100,655.000,0.200,95.000,0.300,25.000,0.500,10.000,1.000,0,5.000,0
"03/08/08","03:13:26",710.000,"cc",28236.078,6.00,6,0.100,586.000,0.200,103.000,0.300,18.000,0.500,3.000,1.000,0,5.000,0
"03/08/08","03:13:32",807.000,"cc",28331.998,6.00,6,0.100,666.000,0.200,104.000,0.300,28.000,0.500,9.000,1.000,0,5.000,0
"03/08/08","03:13:38",775.000,"cc",28294.398,6.00,6,0.100,653.000,0.200,95.000,0.300,21.000,0.500,6.000,1.000,0,5.000,0
"03/08/08","03:13:44",807.000,"cc",28318.981,6.00,6,0.100,666.000,0.200,108.000,0.300,26.000,0.500,6.000,1.000,1.000,5.000,0
"03/08/08","03:13:50",715.000,"cc",28336.367,6.00,6,0.100,590.000,0.200,103.000,0.300,13.000,0.500,7.000,1.000,2.000,5.000,0
"03/08/08","03:13:56",580.000,"cc",28281.895,6.00,6,0.100,492.000,0.200,76.000,0.300,9.000,0.500,2.000,1.000,1.000,5.000,0
"03/08/08","03:14:02",539.000,"cc",28269.715,6.00,6,0.100,477.000,0.200,54.000,0.300,8.000,0.500,0,1.000,0,5.000,0
"03/08/08","03:14:08",607.000,"cc",28272.979,6.00,6,0.100,503.000,0.200,85.000,0.300,14.000,0.500,5.000,1.000,0,5.000,0
"03/08/08","03:14:14",540.000,"cc",28394.195,6.00,6,0.100,445.000,0.200,78.000,0.300,13.000,0.500,4.000,1.000,0,5.000,0
"03/08/08","03:14:20",542.000,"cc",28289.965,6.00,6,0.100,455.000,0.200,70.000,0.300,13.000,0.500,4.000,1.000,0,5.000,0
"03/08/08","03:14:26",709.000,"cc",28297.875,6.00,6,0.100,600.000,0.200,92.000,0.300,15.000,0.500,2.000,1.000,0,5.000,0
"03/08/08","03:14:32",629.000,"cc",28322.758,6.00,6,0.100,535.000,0.200,83.000,0.300,9.000,0.500,2.000,1.000,0,5.000,0
"03/08/08","03:14:38",597.000,"cc",28359.324,6.00,6,0.100,501.000,0.200,80.000,0.300,12.000,0.500,4.000,1.000,0,5.000,0
"03/08/08","03:14:44",619.000,"cc",28397.143,6.00,6,0.100,523.000,0.200,78.000,0.300,15.000,0.500,3.000,1.000,0,5.000,0
"03/08/08","03:14:50",555.000,"cc",28214.467,6.00,6,0.100,470.000,0.200,69.000,0.300,11.000,0.500,5.000,1.000,0,5.000,0
"03/08/08","03:14:56",579.000,"cc",28312.965,6.00,6,0.100,485.000,0.200,82.000,0.300,10.000,0.500,2.000,1.000,0,5.000,0
"03/08/08","03:15:02",625.000,"cc",28294.609,6.00,6,0.100,541.000,0.200,74.000,0.300,7.000,0.500,3.000,1.000,0,5.000,0
"03/08/08","03:15:08",647.000,"cc",28285.145,6.00,6,0.100,546.000,0.200,86.000,0.300,13.000,0.500,2.000,1.000,0,5.000,0
"03/08/08","03:15:14",657.000,"cc",28357.881,6.00,6,0.100,555.000,0.200,88.000,0.300,8.000,0.500,6.000,1.000,0,5.000,0
"03/08/08","03:15:20",489.000,"cc",28362.563,6.00,6,0.100,410.000,0.200,64.000,0.300,15.000,0.500,0,1.000,0,5.000,0
"03/08/08","03:15:26",476.000,"cc",28360.223,6.00,6,0.100,403.000,0.200,67.000,0.300,4.000,0.500,2.000,1.000,0,5.000,0
"03/08/08","03:15:32",448.000,"cc",28276.221,6.00,6,0.100,391.000,0.200,50.000,0.300,6.000,0.500,1.000,1.000,0,5.000,0
"03/08/08","03:15:38",542.000,"cc",28290.408,6.00,6,0.100,471.000,0.200,60.000,0.300,8.000,0.500,3.000,1.000,0,5.000,0
"03/08/08","03:15:44",633.000,"cc",28357.906,6.00,6,0.100,527.000,0.200,99.000,0.300,4.000,0.500,3.000,1.000,0,5.000,0
"03/08/08","03:15:50",537.000,"cc",28329.252,6.00,6,0.100,442.000,0.200,86.000,0.300,7.000,0.500,2.000,1.000,0,5.000,0
"03/08/08","03:15:56",649.000,"cc",28276.391,6.00,6,0.100,548.000,0.200,87.000,0.300,13.000,0.500,1.000,1.000,0,5.000,0
"03/08/08","03:16:02",621.000,"cc",28305.502,6.00,6,0.100,525.000,0.200,83.000,0.300,10.000,0.500,3.000,1.000,0,5.000,0
"03/08/08","03:16:08",594.000,"cc",28329.725,6.00,6,0.100,507.000,0.200,71.000,0.300,13.000,0.500,3.000,1.000,0,5.000,0
"03/08/08","03:16:14",495.000,"cc",28296.777,6.00,6,0.100,417.000,0.200,70.000,0.300,7.000,0.500,1.000,1.000,0,5.000,0
"03/08/08","03:16:20",560.000,"cc",28296.615,6.00,6,0.100,463.000,0.200,81.000,0.300,14.000,0.500,2.000,1.000,0,5.000,0
"03/08/08","03:16:26",248.000,"cc",28381.406,6.00,6,0.100,214.000,0.200,28.000,0.300,3.000,0.500,3.000,1.000,0,5.000,0
"03/08/08","03:16:32",360.000,"cc",28370.408,6.00,6,0.100,306.000,0.200,45.000,0.300,9.000,0.500,0,1.000,0,5.000,0
"03/08/08","03:16:38",417.000,"cc",28342.438,6.00,6,0.100,346.000,0.200,64.000,0.300,4.000,0.500,2.000,1.000,1.000,5.000,0
"03/08/08","03:16:44",459.000,"cc",28313.941,6.00,6,0.100,387.000,0.200,66.000,0.300,6.000,0.500,0,1.000,0,5.000,0
"03/08/08","03:16:50",468.000,"cc",28226.785,6.00,6,0.100,401.000,0.200,59.000,0.300,8.000,0.500,0,1.000,0,5.000,0
"03/08/08","03:16:56",441.000,"cc",28208.434,6.00,6,0.100,377.000,0.200,56.000,0.300,7.000,0.500,1.000,1.000,0,5.000,0
"03/08/08","03:17:02",405.000,"cc",28345.797,6.00,6,0.100,355.000,0.200,40.000,0.300,6.000,0.500,4.000,1.000,0,5.000,0
"03/08/08","03:17:08",323.000,"cc",28358.074,6.00,6,0.100,287.000,0.200,28.000,0.300,6.000,0.500,2.000,1.000,0,5.000,0
"03/08/08","03:17:14",460.000,"cc",28388.119,6.00,6,0.100,390.000,0.200,59.000,0.300,9.000,0.500,2.000,1.000,0,5.000,0
"03/08/08","03:17:20",270.000,"cc",28291.690,6.00,6,0.100,235.000,0.200,29.000,0.300,4.000,0.500,2.000,1.000,0,5.000,0
"03/08/08","03:17:26",311.000,"cc",28402.367,6.00,6,0.100,269.000,0.200,37.000,0.300,3.000,0.500,2.000,1.000,0,5.000,0
"03/08/08","03:17:32",439.000,"cc",28305.945,6.00,6,0.100,373.000,0.200,60.000,0.300,3.000,0.500,3.000,1.000,0,5.000,0
"03/08/08","03:17:38",436.000,"cc",28299.785,6.00,6,0.100,378.000,0.200,52.000,0.300,6.000,0.500,0,1.000,0,5.000,0
"03/08/08","03:17:44",437.000,"cc",28281.834,6.00,6,0.100,383.000,0.200,49.000,0.300,3.000,0.500,1.000,1.000,1.000,5.000,0
"03/08/08","03:17:50",395.000,"cc",28366.815,6.00,6,0.100,342.000,0.200,43.000,0.300,7.000,0.500,3.000,1.000,0,5.000,0
"03/08/08","03:17:56",511.000,"cc",28312.106,6.00,6,0.100,433.000,0.200,70.000,0.300,7.000,0.500,1.000,1.000,0,5.000,0
"03/08/08","03:18:02",509.000,"cc",28322.322,6.00,6,0.100,444.000,0.200,57.000,0.300,7.000,0.500,1.000,1.000,0,5.000,0
"03/08/08","03:18:08",483.000,"cc",28271.074,6.00,6,0.100,430.000,0.200,43.000,0.300,10.000,0.500,0,1.000,0,5.000,0
"03/08/08","03:18:14",538.000,"cc",28378.580,6.00,6,0.100,460.000,0.200,66.000,0.300,10.000,0.500,2.000,1.000,0,5.000,0